This is the latest recevied weather packets stored in our database for station/object KC0AFB. If no packets are shown the sender has not sent any weather packets the latest 10 day(s).
| Time | Temp. | Humidity | Pressure | Rain* | Wind** | Luminosity | Snow |
|---|---|---|---|---|---|---|---|
| 1777648768 | 8.33° C | 53% | 1020.7 hPa | 0 mm | - | 75 W/m² | - |
| 1777648466 | 8.33° C | 53% | 1020.9 hPa | 0 mm | - | 72 W/m² | - |
| 1777648162 | 7.78° C | 55% | 1020.6 hPa | 0 mm | - | 75 W/m² | - |
| 1777647857 | 7.78° C | 54% | 1020.8 hPa | 0 mm | - | 482 W/m² | - |
| 1777647554 | 7.78° C | 55% | 1020.8 hPa | 0 mm | - | 464 W/m² | - |
| 1777647250 | 7.22° C | 59% | 1020.7 hPa | 0 mm | - | 425 W/m² | - |
| 1777646948 | 7.78° C | 56% | 1020.7 hPa | 0 mm | - | 406 W/m² | - |
| 1777646644 | 7.78° C | 54% | 1020.6 hPa | 0 mm | - | 377 W/m² | - |
| 1777646340 | 7.22° C | 53% | 1020.8 hPa | 0 mm | - | 340 W/m² | - |
| 1777646036 | 7.22° C | 57% | 1020.8 hPa | 0 mm | - | 319 W/m² | - |
| 1777645732 | 6.11° C | 57% | 1020.8 hPa | 0 mm | - | 306 W/m² | - |
| 1777645430 | 6.11° C | 55% | 1020.7 hPa | 0 mm | - | 302 W/m² | - |
| 1777645125 | 6.11° C | 57% | 1021 hPa | 0 mm | - | 269 W/m² | - |
| 1777644822 | 5.56° C | 59% | 1020.8 hPa | 0 mm | - | 256 W/m² | - |
| 1777644520 | 5.56° C | 60% | 1021 hPa | 0 mm | - | 256 W/m² | - |
| 1777644216 | 5.56° C | 59% | 1021.2 hPa | 0 mm | - | 234 W/m² | - |
| 1777643912 | 5.56° C | 60% | 1020.9 hPa | 0 mm | - | 219 W/m² | - |
| 1777643610 | 4.44° C | 62% | 1020.9 hPa | 0 mm | - | 220 W/m² | - |
| 1777643307 | 3.89° C | 64% | 1021 hPa | 0 mm | - | 217 W/m² | - |
| 1777643004 | 3.89° C | 66% | 1020.9 hPa | 0 mm | - | 190 W/m² | - |
| 1777642699 | 3.33° C | 66% | 1020.9 hPa | 0 mm | - | 189 W/m² | - |
| 1777642397 | 2.78° C | 69% | 1020.8 hPa | 0 mm | - | 168 W/m² | - |
| 1777642093 | 2.22° C | 71% | 1020.9 hPa | 0 mm | - | 167 W/m² | - |
| 1777641789 | 2.22° C | 69% | 1020.9 hPa | 0 mm | - | 153 W/m² | - |
| 1777641484 | 1.67° C | 70% | 1020.8 hPa | 0 mm | - | 138 W/m² | - |
* Rain latest hour (hover to see other rain measurements)
** Current wind speed in m/s (hover to see current wind gust speed)